Tracking 19177 objects as of 24-May-2018
HD Live streaming from Space Station
objects crossing your sky now

FENGYUN 1C DEB

Track FENGYUN 1C DEB now!
10-day predictions


NORAD ID: 30262
Int'l Code: 1999-025XX
Perigee: 607.2 km
Apogee: 700.4 km
Inclination: 99.1 °
Period: 97.7 minutes
Semi major axis: 7024 km
RCS: 0.025 m2 (small)
Launch date: May 10, 1999
Source: People's Republic of China (PRC)
Launch site: Taiyaun Space Center, China (TSC)

Note: This is SATELLITE DEBRIS
aabbcc
Your satellite tracking list
Your tracking list is empty




NASA's NSSDC Master Catalog

Two Line Element Set (TLE):
1 30262U 99025XX  18143.42214023  .00001953  00000-0  29285-3 0  9990
2 30262  99.0567 140.4857 0066351 138.6745 221.9509 14.74530491601356
Source of the keplerian elements: AFSPC